THY7UJ LTCI-LTFM

Flight info

Callsign THY7UJ
Flight time N/A
Altitude 36000
Route BEYAZ UG81 EZS UG8 GEM UT32 BUK UA4 ERSEN
Aircraft B738/M-SDE2E3FGHIRWXY/LB1

Departure

Time 2026-05-04 08:40
Airport Van Ferit Melen Airport (LTCI)

Arrival

Time N/A
Airport İstanbul Airport (LTFM)
Time Latitude Longitude Altitude Speed Heading
2026-05-04 08:17 38.46932 43.33713 5477 ft 0 kts 128°
2026-05-04 08:28 38.46936 43.33706 5477 ft 2 kts 127°
2026-05-04 08:29 38.46946 43.33689 5478 ft 2 kts 127°
2026-05-04 08:29 38.46956 43.33672 5479 ft 2 kts 119°
2026-05-04 08:29 38.46958 43.33653 5482 ft 2 kts 57°
2026-05-04 08:31 38.46940 43.33629 5479 ft 0 kts 37°
2026-05-04 08:33 38.46953 43.33642 5480 ft 6 kts 37°
2026-05-04 08:33 38.46996 43.33684 5480 ft 9 kts 38°
2026-05-04 08:35 38.47294 43.33691 5482 ft 10 kts 38°
2026-05-04 08:35 38.47356 43.33752 5480 ft 12 kts 38°
2026-05-04 08:35 38.47429 43.33826 5480 ft 15 kts 38°
2026-05-04 08:35 38.47520 43.33915 5482 ft 18 kts 38°
2026-05-04 08:37 38.47745 43.34136 5486 ft 6 kts 218°
2026-05-04 08:37 38.47711 43.34103 5483 ft 6 kts 218°
2026-05-04 08:37 38.47603 43.33996 5485 ft 49 kts 218°
2026-05-04 08:38 38.47148 43.33546 5487 ft 114 kts 218°
2026-05-04 08:38 38.46367 43.32777 5461 ft 169 kts 218°
2026-05-04 08:38 38.45370 43.31793 5852 ft 186 kts 218°
2026-05-04 08:40 38.47080 43.20836 9179 ft 244 kts 273°
2026-05-04 08:40 38.47221 43.18624 9325 ft 262 kts 273°
2026-05-04 08:40 38.47387 43.16247 9594 ft 277 kts 274°
2026-05-04 08:41 38.47580 43.13713 9916 ft 292 kts 274°
2026-05-04 08:41 38.47791 43.11085 10361 ft 306 kts 274°
2026-05-04 08:41 38.48014 43.08283 10533 ft 327 kts 274°
2026-05-04 08:41 38.48257 43.05319 10757 ft 342 kts 274°
2026-05-04 08:42 38.48515 43.02269 11343 ft 347 kts 274°
2026-05-04 08:42 38.48776 42.99241 12111 ft 346 kts 274°
2026-05-04 08:42 38.49037 42.96185 12827 ft 348 kts 274°
2026-05-04 08:42 38.49300 42.93098 13485 ft 351 kts 274°
2026-05-04 08:43 38.49563 42.89983 14196 ft 353 kts 274°
2026-05-04 08:43 38.49827 42.86849 14905 ft 356 kts 273°
2026-05-04 08:43 38.50093 42.83701 15644 ft 357 kts 273°
2026-05-04 08:43 38.50356 42.80539 16307 ft 360 kts 273°
2026-05-04 08:44 38.50615 42.77338 16909 ft 364 kts 272°
2026-05-04 08:44 38.50851 42.74107 17549 ft 366 kts 272°
2026-05-04 08:46 38.52444 42.50904 21538 ft 386 kts 272°
2026-05-04 08:46 38.52678 42.47480 22032 ft 389 kts 272°
2026-05-04 08:46 38.52914 42.44029 22516 ft 392 kts 272°
2026-05-04 08:46 38.53150 42.40546 23007 ft 394 kts 272°
2026-05-04 08:47 38.53387 42.37047 23485 ft 396 kts 272°
2026-05-04 08:47 38.53623 42.33524 23937 ft 399 kts 272°
2026-05-04 08:47 38.53861 42.29969 24384 ft 402 kts 272°
2026-05-04 08:47 38.54098 42.26414 24835 ft 403 kts 272°
2026-05-04 08:48 38.54336 42.22834 25296 ft 404 kts 272°
2026-05-04 08:48 38.54574 42.19247 25708 ft 406 kts 272°
2026-05-04 08:48 38.54812 42.15631 26135 ft 408 kts 271°
2026-05-04 08:48 38.55045 42.12067 26534 ft 409 kts 271°
2026-05-04 08:49 38.55281 42.08431 26925 ft 411 kts 271°
2026-05-04 08:50 38.56695 41.86337 28994 ft 420 kts 271°
2026-05-04 08:50 38.56928 41.82613 29347 ft 421 kts 271°
2026-05-04 08:51 38.57161 41.78871 29659 ft 422 kts 271°
2026-05-04 08:51 38.57393 41.75124 29965 ft 423 kts 271°
2026-05-04 08:51 38.57625 41.71379 30350 ft 422 kts 271°
2026-05-04 08:51 38.57857 41.67642 30765 ft 421 kts 271°
2026-05-04 08:52 38.58084 41.63952 31085 ft 421 kts 271°
2026-05-04 08:52 38.58310 41.60218 31355 ft 422 kts 271°
2026-05-04 08:52 38.58537 41.56463 31632 ft 423 kts 271°
2026-05-04 08:52 38.58687 41.53987 31867 ft 422 kts 271°
2026-05-04 08:53 38.58989 41.48987 32337 ft 421 kts 271°
2026-05-04 08:54 38.60622 41.22824 34289 ft 421 kts 271°
2026-05-04 08:55 38.60779 41.20345 34428 ft 422 kts 271°
2026-05-04 08:55 38.61014 41.16605 34692 ft 422 kts 271°
2026-05-04 08:55 38.61247 41.12861 34957 ft 422 kts 271°
2026-05-04 08:55 38.61555 41.07911 35264 ft 422 kts 271°
2026-05-04 08:57 38.63079 40.82874 35951 ft 423 kts 271°
2026-05-04 09:01 38.65745 40.31004 35949 ft 422 kts 270°
2026-05-04 09:01 38.66114 40.23484 35950 ft 424 kts 270°
2026-05-04 09:02 38.66481 40.15926 35944 ft 426 kts 270°
2026-05-04 09:02 38.66851 40.08403 35933 ft 426 kts 270°
2026-05-04 09:03 38.67222 40.00783 35929 ft 426 kts 270°
2026-05-04 09:03 38.67581 39.93219 35921 ft 426 kts 269°
2026-05-04 09:04 38.67934 39.85698 35920 ft 425 kts 269°
2026-05-04 09:04 38.68283 39.78159 35920 ft 424 kts 269°
2026-05-04 09:05 38.68628 39.70630 35912 ft 423 kts 269°
2026-05-04 09:05 38.69120 39.63151 35899 ft 425 kts 274°
2026-05-04 09:06 38.70635 39.55740 35640 ft 439 kts 288°